Regional Weather Roundup
Issued by NWS Cleveland, OH

Home | Current Version | Previous Version | Graphics & Text | Print | Product List | Glossary On
Versions: 1 2 3 4 5 6 7 8 9 10 11 12 13 14 15 16 17 18 19 20 21 22 23 24 25 26 27 28 29 30 31 32 33 34 35 36 37 38 39 40 41 42 43 44 45 46 47 48 49 50
000
ASUS41 KCLE 070802
RWRCLE
OHIO REGIONAL WEATHER ROUNDUP
NATIONAL WEATHER SERVICE CLEVELAND, OH
400 AM EDT THU MAY 07 2015

NOTE: "FAIR" INDICATES FEW OR NO CLOUDS BELOW 12,000 FEET WITH NO
SIGNIFICANT WEATHER AND/OR OBSTRUCTIONS TO VISIBILITY.

OHZ001>008-015>018-024>027-034-035-043-044-070900-
   NORTHWEST OHIO

CITY           SKY/WX    TMP DP  RH WIND       PRES   REMARKS
DEFIANCE       CLEAR     55  53  93 NE3       30.14F FOG
FINDLAY        CLEAR     57  54  89 E3        30.13F
TOLEDO EXPRESS CLEAR     52  51  97 CALM      30.14S FOG
TOLEDO EXEC    CLEAR     51  49  92 CALM      30.15F FOG
LIMA           CLEAR     59  56  89 E8        30.13F
$$

OHZ009>014-019>023-028>033-038-089-070900-
   NORTHEAST OHIO

CITY           SKY/WX    TMP DP  RH WIND       PRES   REMARKS
CLE-HOPKINS    PTCLDY    52  51  97 CALM      30.18S FOG
CLE-LAKEFRONT  CLEAR     52  50  93 CALM      30.15S
CUY CO. ARPT   NOT AVBL
LORAIN-ELYRIA  FOG       52  52 100 CALM      30.16S VSB 1/4
ASHTABULA      FOG       50  49  96 CALM      30.17S VSB 1/4
AKRON-CANTON   CLEAR     59  55  87 N3        30.16S
WOOSTER        CLEAR     52  51  97 CALM      30.16F FOG
MANSFIELD      CLEAR     58  56  93 CALM      30.15F
YOUNGSTOWN     PTCLDY    55  54  96 CALM      30.16S
$$

OHZ042-051>053-060>062-070>072-077>081-070900-
  SOUTHWEST OHIO

CITY           SKY/WX    TMP DP  RH WIND       PRES   REMARKS
CINC-COVINGTON CLEAR     67  54  63 CALM      30.10S
CINC-LUNKEN    FOG       56  56 100 CALM      30.10S VSB 1/2
HAMILTON       CLEAR     57  55  93 CALM      30.11S FOG
DAYTON         CLEAR     66  57  72 E8        30.13F
WRIGHT-PAT AFB NOT AVBL
DAYTON GENERAL CLEAR     66  55  67 E8        30.11S
WILMINGTON     CLEAR     64  53  67 E7        30.11F
$$

OHZ036-037-039>041-045>050-054>059-063>069-073>076-082>088-070900-
  CENTRAL AND SOUTHEAST OHIO

CITY           SKY/WX    TMP DP  RH WIND       PRES   REMARKS
COLUMBUS       CLEAR     65  58  78 CALM      30.12F
OSU AIRPORT    CLEAR     60  56  86 N6        30.13S
BOLTON FIELD   NOT AVBL
RICKENBACK AFB NOT AVBL
NEWARK         CLEAR     57  56  96 CALM      30.13F FOG
MARION         CLEAR     57  55  93 NE3       30.14F FOG
LANCASTER      CLEAR     56  53  90 CALM      30.13S
ZANESVILLE     CLEAR     58  55  90 CALM      30.13F FOG
NEW PHILLY     CLEAR     59  56  89 CALM      30.15S FOG
$$


USA.gov is the U.S. government's official web portal to all federal, state and local government web resources and services.